Theta_e
345 352 359 363 364 365 363 364 365 366 366 366 366 365 364 364 364 364 363 362 362 361 360 361 361 361 361 361 361 361 360 360 360 361 361 361 361 361 361 360 360 357 359
348 354 361 364 364 364 365 365 365 365 365 367 367 366 365 364 364 363 363 362 361 361 362 362 362 361 361 361 361 362 361 361 361 360 360 360 360 359 359 358 357 355 359
350 355 358 364 364 364 365 365 363 364 363 365 365 364 363 362 364 363 363 363 362 362 361 362 361 360 360 360 361 361 360 360 359 359 359 357 356 358 359 358 357 357 356
352 354 357 363 364 364 364 364 364 362 363 364 363 363 362 363 364 364 364 363 362 362 361 361 361 361 361 361 360 357 358 358 359 358 355 354 356 358 357 357 358 358 357
352 353 357 364 364 363 363 363 364 363 362 363 362 363 363 363 363 363 363 363 362 360 360 362 361 361 359 360 359 358 357 355 357 352 351 353 355 357 358 357 358 357 357
353 354 361 362 361 361 362 363 362 363 362 362 362 362 362 363 363 363 361 360 362 360 361 361 361 361 359 359 358 357 358 356 352 346 349 353 353 359 359 358 356 358 358
351 355 357 363 361 360 361 362 362 362 362 362 362 362 362 362 362 363 360 358 361 362 361 360 360 359 358 358 357 356 357 356 350 344 348 351 350 354 354 356 355 355 355
351 354 355 360 361 361 363 363 362 361 362 362 362 362 363 361 361 362 360 358 357 358 360 360 357 355 355 355 357 355 356 352 349 349 349 350 351 355 355 355 356 357 357
351 353 352 352 355 360 363 363 361 361 360 360 363 362 361 360 360 360 361 360 358 356 357 358 356 357 357 358 357 356 359 353 346 349 347 351 352 355 356 355 357 357 357
350 352 352 354 357 355 357 363 362 361 360 362 361 362 361 360 361 361 361 360 361 361 360 358 357 358 358 356 355 355 359 353 347 347 349 349 354 354 353 358 358 356 356
349 351 353 353 353 353 355 356 361 360 360 362 359 359 356 347 350 351 355 358 359 358 358 357 357 356 355 354 355 355 358 348 347 347 345 350 353 354 354 356 356 356 357
344 348 351 351 352 352 357 353 353 355 355 353 349 348 341 339 342 345 350 356 356 355 356 356 355 355 354 352 352 353 350 347 347 346 348 348 352 353 354 356 358 357 358
345 348 350 350 351 351 353 351 350 350 350 349 346 343 341 337 337 342 342 344 344 347 343 345 346 346 345 349 352 352 350 347 346 348 349 349 351 352 354 355 356 358 357
344 346 349 350 350 351 351 350 349 348 348 348 346 344 340 336 335 338 338 341 341 341 340 339 337 338 339 344 348 349 350 349 347 345 346 349 352 354 355 356 357 357 358
341 345 346 349 350 350 350 350 346 347 347 348 347 344 340 337 336 337 337 338 339 338 337 337 337 338 341 346 346 347 348 347 347 346 346 347 352 355 356 358 360 357 357
340 343 346 348 350 351 351 349 345 347 347 346 344 344 343 338 337 337 338 339 337 338 338 340 341 344 344 344 345 346 347 347 346 344 346 347 352 355 356 357 358 357 357
337 341 344 347 349 349 349 348 344 342 343 344 345 343 341 341 339 338 338 339 342 343 342 344 345 346 345 345 344 346 347 347 347 347 347 349 349 354 356 357 358 358 359
336 340 342 348 347 348 348 346 344 343 341 342 345 345 342 341 341 340 339 339 343 345 344 345 345 343 342 343 343 343 344 345 345 345 347 348 349 348 350 355 358 359 359
338 339 340 343 344 346 348 346 343 342 342 342 342 345 345 344 343 340 340 341 344 345 345 345 346 344 342 343 343 344 344 343 344 345 344 346 347 348 349 351 357 359 357
338 339 341 342 343 345 345 345 345 344 344 344 344 345 346 345 345 343 343 343 344 344 345 345 345 345 345 344 343 344 344 344 345 343 343 343 344 346 348 350 351 354 359
338 338 340 341 343 343 342 341 342 342 345 343 345 346 346 347 346 344 343 343 343 343 343 345 343 342 340 345 341 341 341 343 343 345 345 344 343 344 347 350 352 352 355
338 338 340 341 342 344 344 344 345 344 345 345 347 348 348 348 349 346 344 343 342 341 342 344 343 340 341 344 339 337 332 335 337 340 343 343 343 345 346 349 351 352 353
339 339 340 341 342 343 345 347 347 347 347 347 345 343 348 349 350 350 349 346 345 344 344 344 344 343 340 342 342 338 330 327 333 340 341 341 342 341 344 347 349 350 351
338 342 343 342 343 344 344 345 346 345 343 348 350 353 351 350 347 348 348 348 347 347 345 346 347 345 343 340 340 343 340 339 335 333 340 344 345 344 345 343 346 349 350
344 342 344 345 344 346 345 346 344 344 346 350 352 352 352 351 351 353 350 350 348 350 347 346 347 345 344 343 341 340 340 340 340 333 332 336 342 346 349 349 348 348 348
343 341 339 342 341 347 346 347 346 345 349 349 348 346 346 348 349 350 352 352 350 349 348 347 347 347 345 344 343 342 340 337 337 336 333 336 337 342 347 350 350 351 351
Wind_Speed
1 5 14 17 18 18 17 16 16 16 17 17 18 17 16 16 15 14 13 12 12 12 12 12 12 12 13 13 13 13 13 13 12 12 11 11 11 11 12 12 11 10 10
5 7 15 16 18 18 17 16 16 16 16 16 16 17 16 15 15 15 14 12 12 13 13 12 13 13 13 13 12 13 13 12 12 12 12 10 11 10 10 10 10 9 10
5 6 13 16 16 17 16 16 16 16 16 15 15 15 14 14 15 15 13 13 12 13 14 14 14 14 14 14 13 12 10 9 9 9 11 5 6 9 9 9 9 9 8
6 5 8 14 15 16 16 15 15 16 15 15 13 13 11 12 14 14 13 13 12 13 12 13 13 14 14 14 13 13 12 10 10 11 5 4 6 8 7 8 8 8 8
6 6 10 15 15 15 15 14 14 14 14 13 12 11 11 11 12 13 14 12 13 12 11 12 12 13 13 15 14 12 9 8 9 7 5 5 4 6 9 8 8 8 8
5 5 13 16 16 14 13 13 13 13 13 12 12 11 10 11 12 12 13 12 12 11 11 11 11 12 12 12 12 10 10 7 6 4 4 4 4 5 7 7 7 7 7
5 4 8 14 14 14 13 12 12 12 11 11 10 10 9 10 10 11 12 12 10 11 9 9 10 10 10 10 10 9 9 8 4 4 3 3 2 1 4 6 7 7 7
6 5 6 13 14 13 13 13 12 11 10 10 9 9 8 8 9 10 11 12 10 9 10 9 8 8 8 8 8 8 8 8 6 5 4 2 3 4 3 4 6 6 6
5 5 4 5 9 13 12 12 11 10 10 10 9 10 9 9 9 9 9 10 11 10 8 8 8 8 7 6 6 5 7 8 5 3 4 3 4 4 3 4 5 5 6
4 4 5 3 4 4 5 11 11 10 9 10 10 10 10 9 9 9 8 10 8 9 10 8 7 6 5 5 4 4 8 6 3 2 2 2 7 7 6 6 5 7 7
4 4 5 5 5 5 5 6 10 10 11 11 10 11 6 2 3 4 5 7 7 7 8 8 7 6 4 4 4 4 8 3 2 1 0 3 6 7 8 9 9 9 9
7 5 4 3 3 2 2 1 4 4 4 4 4 4 4 3 1 2 4 8 8 7 6 6 6 6 4 1 1 2 2 4 3 3 2 7 8 9 10 11 12 12 12
7 5 5 4 4 4 2 2 1 1 1 1 3 3 3 2 1 1 2 1 1 2 0 1 1 1 1 1 2 2 2 3 2 3 4 6 9 12 14 13 14 15 14
8 8 6 5 5 6 3 4 4 3 2 2 3 4 3 2 2 2 2 2 2 1 2 2 2 3 4 4 4 4 4 3 3 2 4 11 13 14 17 17 17 17 17
7 8 7 6 5 5 3 3 3 4 4 4 4 4 3 3 3 2 3 3 3 2 3 3 3 2 4 4 3 5 5 6 6 4 3 12 12 14 16 17 17 18 18
7 8 7 8 12 7 5 3 3 3 4 4 3 4 5 4 3 3 3 3 4 4 4 4 4 3 3 4 4 5 5 6 6 7 5 5 13 14 13 14 16 18 18
7 6 9 11 10 8 7 5 4 3 3 3 4 4 5 5 5 4 4 4 4 3 4 4 4 4 4 4 5 5 5 6 7 8 6 6 7 14 15 14 18 16 15
7 10 7 9 10 10 8 5 4 4 3 4 3 4 6 6 6 5 5 5 4 4 4 3 4 3 3 5 5 5 5 6 7 8 7 7 6 6 10 13 14 16 17
11 8 8 9 10 11 8 4 4 4 4 3 3 2 4 5 6 6 5 5 4 4 4 4 5 4 3 5 6 6 6 6 7 7 8 8 9 8 6 11 14 15 20
8 8 7 7 7 6 4 3 3 2 3 2 1 2 6 6 7 6 5 5 5 5 5 5 7 5 6 5 5 6 6 6 6 6 8 8 8 9 8 8 7 9 19
7 8 9 9 7 6 3 2 1 4 2 1 2 6 11 8 6 6 6 6 6 7 8 7 7 6 5 4 2 3 5 9 9 8 7 7 9 9 8 8 6 7 7
8 9 8 9 7 7 4 2 1 2 1 3 3 8 7 10 9 7 9 7 8 7 9 8 8 2 4 5 3 1 2 2 2 7 6 7 10 7 9 10 9 10 9
5 6 8 7 6 4 4 3 2 1 1 3 3 3 8 9 11 9 11 8 8 8 8 9 9 8 4 4 6 3 2 3 2 1 1 4 7 5 7 8 10 10 9
5 5 6 5 2 1 4 4 4 3 3 3 3 3 3 6 6 8 8 8 7 5 7 8 8 7 6 5 3 7 3 2 1 3 1 2 2 4 5 6 8 9 9
5 4 2 4 5 5 5 4 4 5 5 3 4 5 5 3 2 3 7 7 8 5 7 8 7 8 7 5 5 2 4 4 4 3 5 3 1 3 4 4 5 5 8
8 11 13 17 15 8 11 8 6 7 3 3 3 4 4 3 3 4 4 2 4 4 6 7 6 8 7 6 5 5 4 4 4 5 7 6 5 4 4 4 5 5 6
Wind_Direction
7 134 145 120 118 115 113 107 102 102 104 111 117 123 128 130 129 129 127 125 114 110 107 104 100 98 100 101 106 108 113 115 110 107 108 102 106 108 102 102 100 99 100
129 139 139 120 119 118 116 112 111 112 115 117 121 125 130 131 130 124 123 122 116 115 115 113 113 112 106 105 106 107 113 116 122 120 109 109 104 103 101 103 99 105 99
122 135 129 122 125 119 118 117 120 124 126 125 127 129 135 135 123 120 125 123 125 114 121 117 116 114 114 110 109 99 95 91 97 100 108 92 103 103 100 102 101 98 97
132 121 132 134 129 123 121 120 123 128 130 127 129 129 134 131 124 125 128 124 121 114 116 115 113 111 112 111 104 100 82 84 88 75 65 83 103 102 102 93 98 102 101
116 119 140 136 132 127 124 127 125 126 126 126 129 124 128 124 127 129 126 127 118 119 121 112 112 110 114 112 107 98 88 90 97 80 76 67 41 114 111 116 113 119 118
124 136 141 140 138 135 134 131 128 127 128 131 138 135 139 135 137 131 127 128 125 128 120 120 118 112 116 112 103 94 84 80 103 100 101 81 79 111 118 123 125 125 122
126 140 136 142 143 147 146 143 139 140 143 144 141 135 148 141 137 139 134 131 132 127 120 123 116 119 126 120 104 85 77 73 125 120 124 114 112 157 155 154 145 140 141
135 121 140 150 154 158 157 149 153 153 150 145 139 138 152 146 144 145 139 136 140 137 136 129 126 129 130 121 112 91 83 84 89 128 132 134 179 196 203 184 166 159 159
123 120 136 155 165 171 173 160 161 163 156 152 148 150 154 150 148 151 148 148 153 149 146 144 135 129 128 121 123 109 106 110 126 147 146 161 203 221 243 184 171 174 164
134 149 162 171 148 139 164 168 170 169 166 160 152 153 154 159 158 151 154 164 161 159 153 153 151 154 148 137 132 127 132 117 110 141 151 181 206 219 221 207 211 201 198
157 176 178 178 176 171 181 183 180 175 186 169 164 164 126 106 102 128 154 178 175 172 175 173 172 177 182 186 188 183 133 130 192 270 216 244 203 217 230 217 215 219 218
185 193 190 173 166 163 176 163 159 207 168 160 171 147 145 120 119 161 185 185 192 197 201 201 203 207 215 183 267 255 178 179 184 191 241 262 235 222 237 236 219 219 224
177 182 189 180 157 164 181 153 178 180 175 164 181 159 157 141 278 286 284 326 90 253 236 306 288 274 280 266 261 247 242 246 212 215 215 206 230 251 244 241 230 220 220
177 185 177 175 173 205 188 179 187 185 170 200 201 187 174 166 205 228 235 259 250 230 240 243 255 276 278 264 247 251 246 248 230 223 236 233 239 252 242 244 237 225 219
189 185 183 164 187 212 209 218 172 198 193 194 200 199 181 194 208 216 230 218 231 240 246 251 264 260 258 267 265 247 241 246 246 249 233 245 249 251 243 241 222 213 220
197 201 168 173 205 193 215 209 188 216 205 200 208 215 199 199 211 215 225 227 227 224 233 236 239 247 248 261 263 260 251 245 248 248 255 250 253 260 257 246 208 213 219
205 202 184 182 198 199 191 203 194 215 213 218 226 216 215 208 217 227 234 241 231 228 233 240 245 246 257 260 257 253 251 247 244 241 235 247 255 251 264 233 223 217 218
200 204 189 196 194 198 206 196 187 193 214 240 239 225 211 216 219 220 232 245 234 211 217 227 233 241 222 250 265 257 252 245 244 239 228 228 236 238 248 262 231 217 219
199 200 204 190 194 201 202 179 188 208 205 203 256 307 299 255 222 223 228 237 232 237 233 233 239 224 236 239 246 256 252 247 246 250 238 224 236 234 233 249 251 224 222
194 200 200 201 199 169 155 168 186 203 250 196 70 312 257 242 235 215 231 235 221 231 239 228 239 225 234 245 255 253 255 248 241 237 243 244 233 232 231 233 241 240 220
187 192 196 188 192 161 151 172 188 225 200 41 144 224 259 259 240 231 236 223 204 228 233 226 240 243 249 219 256 256 248 233 235 236 229 228 236 240 234 234 225 232 227
199 203 199 204 182 192 184 122 140 120 155 244 183 222 232 265 261 236 242 235 217 218 226 221 219 216 221 193 188 188 302 314 251 239 231 231 233 230 232 230 226 225 224
260 234 210 208 195 175 142 125 131 115 210 227 188 219 235 225 240 242 241 236 221 206 215 222 214 206 226 210 217 174 203 234 297 309 246 231 229 212 233 233 225 225 225
221 208 223 215 112 120 202 182 173 181 219 236 243 242 205 204 223 228 225 237 248 240 229 219 208 210 202 220 226 236 237 162 201 308 277 247 243 233 219 227 234 229 221
290 215 114 158 194 178 199 222 212 202 233 286 273 288 4 5 356 230 208 228 247 239 251 231 217 207 203 204 203 179 219 236 214 198 274 277 273 244 246 223 209 224 233
15 69 66 59 23 17 33 305 233 234 257 311 354 30 7 352 4 23 344 229 239 252 255 267 237 211 217 221 205 200 191 185 202 213 232 258 258 262 249 229 226 217 213